カタログに戻る

LANDSAT 7

運用中科学SSO
NORAD 25682·PAYLOAD·🇺🇸 United States

打ち上げ Apr 15, 1999 から Vandenberg Space Force Base

Loading…

次のパス (今後24時間)

TLE

最新Source: Space-Track

元期: Sep 14, 2026, 23:31 UTC

1 25682U 99020A   26257.97992707  .00000304  00000-0  66616-4 0  9991
2 25682  97.8637 257.5266 0001547 100.7359 286.5929 14.63981037458987

AllMySatでLANDSAT 7をリアルタイム追跡

Download on the App Store